TimeEDT,TemperatureF,Dew PointF,Humidity,Sea Level PressureIn,VisibilityMPH,Wind Direction,Wind SpeedMPH,Gust SpeedMPH,PrecipitationIn,Events,Conditions,WindDirDegrees,DateUTC
12:53 AM,77.0,66.9,71,30.03,10.0,South,5.8,-,N/A,,Clear,190,2013-08-29 04:53:00
1:53 AM,77.0,66.9,71,30.02,10.0,SSW,6.9,-,N/A,,Clear,200,2013-08-29 05:53:00
2:53 AM,75.9,66.9,74,30.01,10.0,SSW,5.8,-,N/A,,Partly Cloudy,200,2013-08-29 06:53:00
3:53 AM,75.9,66.9,74,30.00,10.0,Calm,Calm,-,N/A,,Clear,0,2013-08-29 07:53:00
4:53 AM,73.9,66.9,79,30.00,10.0,SSW,3.5,-,N/A,,Clear,210,2013-08-29 08:53:00
5:53 AM,73.9,68.0,82,30.00,10.0,SW,3.5,-,N/A,,Clear,230,2013-08-29 09:53:00
6:53 AM,72.0,68.0,87,30.01,10.0,Calm,Calm,-,N/A,,Scattered Clouds,0,2013-08-29 10:53:00
7:53 AM,77.0,70.0,79,30.02,10.0,West,3.5,-,N/A,,Clear,260,2013-08-29 11:53:00
8:53 AM,81.0,72.0,74,30.03,10.0,WSW,5.8,-,N/A,,Scattered Clouds,250,2013-08-29 12:53:00
9:53 AM,82.9,72.0,69,30.02,10.0,WSW,9.2,-,N/A,,Clear,250,2013-08-29 13:53:00
10:53 AM,87.1,70.0,57,30.03,10.0,NW,6.9,-,N/A,,Clear,310,2013-08-29 14:53:00
11:53 AM,89.1,66.9,48,30.01,10.0,WNW,8.1,-,0.00,,Clear,290,2013-08-29 15:53:00
12:53 PM,90.0,64.9,43,29.99,10.0,NW,4.6,16.1,N/A,,Clear,310,2013-08-29 16:53:00
1:53 PM,91.9,66.0,42,29.98,10.0,NW,9.2,-,0.00,,Partly Cloudy,320,2013-08-29 17:53:00
2:53 PM,91.9,64.9,41,29.96,10.0,WSW,4.6,-,N/A,,Scattered Clouds,250,2013-08-29 18:53:00
3:53 PM,91.9,64.9,41,29.94,10.0,North,8.1,-,N/A,,Partly Cloudy,350,2013-08-29 19:53:00
4:53 PM,93.0,66.0,41,29.93,10.0,NNW,8.1,-,N/A,,Scattered Clouds,340,2013-08-29 20:53:00
5:53 PM,91.0,66.0,44,29.93,10.0,NW,6.9,-,N/A,,Clear,320,2013-08-29 21:53:00
6:53 PM,90.0,66.0,45,29.92,10.0,NW,3.5,-,N/A,,Clear,320,2013-08-29 22:53:00
7:53 PM,82.9,73.9,74,29.93,10.0,Calm,Calm,-,N/A,,Clear,0,2013-08-29 23:53:00
8:53 PM,82.0,73.9,76,29.94,10.0,SSE,3.5,-,N/A,,Clear,150,2013-08-30 00:53:00
9:53 PM,82.0,72.0,71,29.96,10.0,South,4.6,-,N/A,,Partly Cloudy,180,2013-08-30 01:53:00
10:53 PM,82.0,71.1,69,29.96,10.0,SSW,5.8,-,N/A,,Partly Cloudy,200,2013-08-30 02:53:00
11:53 PM,81.0,71.1,72,29.96,10.0,SSW,4.6,-,N/A,,Clear,200,2013-08-30 03:53:00